SCP
1 1 2 1 1 1 1 1 1 1 0 0 0 0 0 0 0 0 0 0 0 0 0 0 0 0 0 0 0 0 0 0 0 0 0 0 0 0 0 0 0 0 0
1 2 2 1 1 1 1 1 1 0 0 0 0 0 0 0 0 0 0 0 0 0 0 0 0 0 0 0 0 0 0 0 0 0 0 0 0 0 0 0 0 0 0
0 0 0 0 0 0 1 0 0 0 0 0 0 0 0 0 0 0 0 0 0 0 0 0 0 0 0 0 0 0 0 0 0 0 0 0 0 0 0 0 0 1 0
0 0 0 0 0 0 0 0 0 0 0 0 0 0 0 0 0 0 0 0 0 0 0 0 0 0 0 0 0 0 0 0 0 0 0 0 0 0 0 0 0 0 1
0 0 0 0 0 0 0 0 0 0 0 0 0 0 0 0 0 0 0 0 1 0 1 0 0 0 0 0 0 0 0 0 0 0 0 0 0 0 0 0 0 0 0
0 0 0 0 0 0 0 0 0 0 0 0 0 0 0 0 0 0 0 0 0 1 1 1 1 0 0 0 0 0 0 0 0 0 0 0 0 0 0 0 0 0 0
0 0 0 0 0 0 0 0 0 0 0 0 0 0 0 0 0 0 0 0 0 0 1 1 0 0 0 0 0 0 0 0 0 0 0 0 0 0 0 0 0 0 0
0 0 0 0 0 0 0 0 0 0 0 0 0 0 0 0 0 0 0 0 0 0 0 0 0 0 0 0 0 0 0 0 0 0 0 0 0 0 0 0 0 0 0
0 0 0 0 0 0 0 0 0 0 0 0 0 0 0 0 0 0 0 0 0 0 0 0 0 0 0 0 0 0 0 0 0 0 0 0 0 0 0 0 0 0 0
0 0 0 0 0 0 0 0 0 0 0 0 0 0 0 0 0 0 0 0 0 0 0 0 0 0 0 0 0 0 0 0 0 0 0 0 0 0 0 0 0 0 0
0 0 0 0 0 0 0 0 0 0 0 0 0 0 0 0 0 0 0 0 0 0 0 0 0 0 0 0 0 0 0 0 0 0 0 0 0 0 0 0 0 0 0
0 0 0 0 0 0 0 0 0 0 0 0 0 0 0 0 0 0 0 0 0 0 0 0 0 0 0 0 0 0 0 -0 -0 -0 0 0 0 0 0 0 0 0 0
0 0 0 0 0 0 0 0 0 0 0 0 0 0 0 0 0 0 0 0 0 0 0 0 0 0 0 0 0 0 0 -0 -0 0 0 0 0 0 0 0 0 -0 0
-0 -0 0 0 0 0 0 0 0 0 0 0 0 0 0 0 0 0 0 0 0 0 0 0 0 0 0 0 0 -0 -0 0 0 0 -0 -0 0 0 0 0 0 -0 0
-0 -0 -0 -0 -0 -0 0 0 0 0 0 0 0 0 0 0 0 0 0 0 0 0 0 0 0 0 0 0 -0 0 0 0 0 -0 -0 -0 -0 -0 0 0 0 0 0
-0 0 -0 -0 -0 -0 0 0 0 0 0 0 0 0 0 0 0 0 0 0 0 0 0 0 0 0 0 0 -0 0 0 0 -0 0 0 0 0 0 0 0 0 0 0
-0 -0 -0 -0 0 0 0 0 0 0 0 0 0 0 0 0 0 0 0 0 0 0 0 0 0 0 0 0 0 0 0 0 0 0 -0 0 0 0 0 0 0 0 0
-0 -0 -0 0 0 0 0 0 0 0 0 0 0 0 0 0 0 0 0 0 0 0 0 0 0 0 0 0 0 0 0 0 0 0 0 0 0 0 0 0 0 0 0
-0 -0 0 0 0 0 0 0 0 0 0 0 0 0 0 0 0 0 0 0 0 0 0 0 0 0 0 0 0 0 0 0 0 0 0 0 0 0 0 0 0 0 0
-0 -0 0 0 0 0 0 0 0 0 0 0 0 0 0 0 0 0 0 0 -0 -0 0 0 0 0 0 0 0 0 -0 0 0 -0 0 0 0 0 0 0 0 0 0
-0 0 0 0 0 0 0 0 0 0 0 0 0 0 0 0 0 -0 -0 -0 -0 0 0 0 0 0 0 0 0 0 -0 -0 0 0 0 0 0 0 0 0 0 0 0
0 0 -0 -0 0 0 0 0 0 0 0 0 0 0 0 0 0 0 0 0 0 0 0 0 0 0 0 0 0 0 -0 0 0 0 0 0 0 0 0 0 0 0 0
-0 0 -0 -0 -0 0 0 0 0 0 0 0 0 0 0 0 0 0 0 0 0 -0 -0 0 0 0 0 0 0 0 0 0 0 0 0 0 0 0 0 0 0 0 -0
0 0 0 -0 -0 -0 0 0 0 0 0 0 0 0 0 0 0 0 0 0 0 -0 0 0 0 0 0 0 0 0 0 0 0 0 0 0 0 0 0 0 0 -0 0
0 -0 -0 -0 -0 -0 -0 0 0 0 0 0 0 0 0 0 0 0 0 -0 -0 -0 0 -0 0 0 0 0 0 0 0 0 0 0 0 0 0 0 0 0 0 0 0
0 0 -0 -0 -0 0 0 0 0 0 0 0 0 0 0 0 0 0 0 -0 -0 -0 -0 0 0 0 0 0 0 0 -0 0 0 0 0 0 0 0 0 0 0 0 0
Wind_Speed_500mb
27 27 28 24 24 26 24 22 22 23 24 26 29 32 35 36 36 40 39 36 35 33 34 37 39 40 40 42 44 47 51 52 62 62 58 65 66 64 58 57 53 50 45
16 16 17 17 15 15 15 15 17 20 23 28 33 38 40 40 40 42 41 41 42 43 43 43 44 43 45 45 48 52 54 56 61 68 63 65 64 59 60 57 54 44 45
10 10 10 10 11 12 16 18 21 24 29 34 39 44 47 49 50 51 51 53 55 55 53 53 52 49 49 50 50 52 54 56 59 65 68 61 63 57 57 54 51 44 40
8 5 2 11 17 22 28 32 34 33 36 40 44 49 53 56 60 61 62 64 67 66 66 63 60 59 58 56 53 52 53 57 59 65 71 67 64 59 56 55 50 44 41
6 10 13 16 21 25 31 36 41 48 49 49 52 57 61 66 70 71 72 76 78 77 76 74 72 70 69 66 60 60 61 63 66 68 71 68 66 63 57 54 53 50 49
13 15 20 26 33 40 48 55 60 67 71 69 65 66 69 75 79 82 85 83 85 86 86 84 80 79 77 76 79 76 72 66 69 73 76 72 59 64 60 56 57 62 66
21 24 28 32 37 40 43 47 52 56 60 63 66 68 74 77 81 84 87 90 88 90 88 90 91 88 84 76 70 69 64 65 66 72 79 76 70 61 59 61 58 52 43
30 33 36 39 45 47 50 52 56 59 62 64 66 69 73 75 77 80 83 83 84 87 86 85 87 90 87 82 75 72 69 64 63 71 73 71 68 63 60 59 51 58 46
40 42 44 45 50 52 55 57 58 60 62 65 66 67 68 68 66 68 71 63 66 69 71 78 84 86 82 76 73 77 72 69 66 72 74 73 72 72 61 57 57 47 36
43 45 46 48 50 55 55 58 58 58 59 57 58 58 59 62 62 70 69 73 72 73 75 72 76 77 71 76 74 74 73 70 63 63 61 69 65 65 50 51 41 42 41
46 47 49 50 52 52 52 49 48 51 54 56 59 67 74 67 57 54 52 51 55 56 60 57 56 63 78 81 85 76 71 66 75 75 65 62 58 55 64 54 48 66 49
46 48 49 47 46 44 47 50 56 56 62 66 66 66 49 49 53 48 47 49 49 51 52 58 57 48 41 55 58 64 72 78 76 73 59 49 46 49 59 64 70 70 42
46 45 45 44 43 46 48 58 57 53 58 62 60 60 61 57 56 49 45 50 55 56 46 51 49 42 51 52 62 69 70 66 62 58 51 39 41 44 76 70 46 46 51
44 43 42 51 52 48 44 45 54 55 55 56 57 60 60 58 51 45 40 40 40 26 32 37 45 46 42 44 49 55 56 53 55 50 46 35 47 45 53 56 44 46 43
43 49 49 46 46 46 46 45 45 42 41 44 48 51 55 58 51 48 43 45 42 39 29 21 25 31 35 38 41 41 41 48 50 62 55 37 44 44 35 38 38 38 31
45 44 44 44 44 42 43 44 38 41 39 40 40 39 43 47 47 47 45 38 48 36 30 29 28 28 33 34 36 30 18 32 43 73 51 37 30 34 32 35 37 33 28
40 40 41 39 38 39 39 43 50 44 43 40 43 41 40 44 42 43 43 38 34 49 41 30 25 25 28 27 43 26 10 28 66 55 50 36 24 34 41 38 35 25 24
33 33 35 35 35 35 36 40 45 50 54 51 43 40 39 41 34 33 33 30 31 39 44 28 22 23 26 25 26 25 11 9 66 68 52 25 32 32 40 41 29 24 21
29 31 32 33 30 31 32 34 37 39 40 43 44 41 42 41 30 23 22 26 25 29 35 26 24 22 23 20 16 26 21 10 58 67 66 38 40 34 33 27 24 23 23
26 27 30 30 31 30 28 30 34 36 40 42 40 42 44 40 30 24 14 14 21 26 27 26 24 21 22 19 21 18 19 9 30 67 58 35 23 26 26 21 16 16 19
27 28 29 29 28 27 25 27 30 34 39 38 36 34 34 36 28 22 14 10 15 20 28 21 22 17 19 21 25 11 13 9 19 51 64 18 23 21 21 19 17 16 13
25 28 30 27 28 25 25 25 29 33 35 37 37 33 30 32 34 23 17 11 6 20 27 19 19 23 16 20 23 15 10 16 8 25 43 21 20 18 18 18 15 13 14
26 32 36 36 32 28 28 28 30 32 33 36 37 37 31 29 30 29 18 15 2 13 25 26 18 19 17 21 23 20 16 16 8 11 19 18 16 19 20 18 18 18 16
39 40 42 45 46 44 41 38 33 33 34 35 36 36 35 29 22 22 20 17 14 7 24 32 24 25 18 23 14 15 14 17 14 1 9 11 16 21 21 20 21 19 15
48 50 54 57 58 58 52 48 46 42 40 38 36 35 35 31 27 20 15 13 11 6 6 19 39 36 18 21 25 23 29 26 23 14 17 22 14 19 21 20 20 19 16
57 60 65 64 69 73 73 71 67 62 56 50 44 39 36 33 27 23 19 16 13 9 2 10 14 26 29 25 29 30 34 31 24 22 20 21 15 17 23 23 23 19 15
Wind_Direction_500mb
128 141 155 160 167 179 188 195 204 216 233 240 248 244 245 247 251 258 262 259 253 256 259 260 262 266 269 270 272 273 275 277 279 287 285 287 285 284 282 274 275 278 281
126 138 147 155 169 181 189 207 222 237 245 246 245 246 248 249 252 253 254 257 258 255 255 258 261 265 264 268 273 274 274 274 278 283 283 284 286 284 279 280 278 272 271
112 123 134 161 177 204 225 236 243 247 249 250 251 251 254 256 259 259 260 260 259 258 258 259 262 264 264 267 266 269 272 275 276 279 283 283 284 285 285 280 274 271 260
72 79 195 240 250 254 256 258 261 262 261 260 259 259 259 260 261 262 263 263 261 260 260 261 263 263 264 263 265 267 273 277 278 278 278 279 280 286 282 279 272 263 256
356 348 304 296 286 281 277 276 275 273 271 270 269 266 265 264 265 265 263 262 262 263 262 263 264 263 261 257 260 264 268 275 276 275 274 274 276 278 277 278 270 263 262
328 319 310 300 292 287 283 279 276 274 272 272 270 269 267 265 266 263 262 262 262 263 264 263 261 261 259 259 260 262 265 272 274 270 270 272 273 278 276 274 270 273 266
314 305 300 297 293 290 287 284 283 281 280 276 273 271 269 268 268 266 265 264 265 263 262 260 258 257 257 254 258 264 268 277 280 274 265 266 271 274 278 274 266 269 255
305 300 297 293 290 289 287 284 283 281 279 277 276 274 275 273 272 270 268 267 267 266 264 263 262 260 251 250 254 257 263 271 274 272 267 266 269 267 273 270 260 269 246
301 297 294 292 292 292 289 287 284 281 280 279 278 279 278 279 277 275 272 273 269 268 267 263 260 259 251 247 249 250 261 269 276 272 270 268 267 270 261 253 258 250 216
296 292 293 293 290 289 287 286 286 284 285 285 284 282 282 280 274 269 270 270 272 274 272 264 254 254 257 249 248 249 260 266 275 277 272 268 264 260 240 231 232 194 175
294 295 294 293 292 290 290 289 288 287 285 282 279 280 282 285 290 286 282 270 270 271 272 275 272 259 250 247 249 249 256 263 273 275 274 268 260 245 240 236 214 173 216
295 293 293 293 292 289 288 287 289 290 291 292 293 294 288 277 277 274 277 273 267 267 269 266 263 259 243 229 231 243 257 265 263 263 262 249 231 236 226 177 166 165 178
295 294 293 293 292 288 289 294 295 295 297 301 300 297 297 296 290 280 272 266 266 270 265 266 264 257 258 257 256 258 262 253 251 254 241 226 213 180 173 176 186 198 181
291 293 290 290 297 297 297 297 301 304 304 302 300 296 297 296 291 289 284 276 264 269 269 265 258 259 251 247 250 253 246 242 244 237 209 192 173 163 169 183 187 190 185
290 293 300 302 302 302 305 305 307 310 310 306 302 299 295 296 291 279 277 261 264 250 268 259 262 251 253 252 248 245 243 242 223 193 196 190 185 202 202 198 196 187 185
299 301 304 306 308 310 314 317 322 324 323 322 318 311 305 296 296 289 282 276 245 245 257 252 259 258 254 250 246 239 240 226 222 193 205 215 209 209 205 209 202 192 189
300 308 312 312 315 318 323 323 325 327 328 332 333 328 322 313 300 288 283 272 254 243 249 229 252 255 252 247 216 236 233 207 189 197 206 221 220 207 200 200 200 194 193
311 314 315 320 322 322 321 324 326 326 330 332 338 335 334 330 307 294 279 262 249 237 230 226 244 251 248 248 228 220 202 229 193 195 202 222 204 201 199 202 199 200 193
324 325 323 320 316 312 315 321 324 326 328 331 338 344 344 338 334 316 286 252 244 232 220 225 233 251 244 251 227 209 194 209 200 206 215 209 237 198 195 202 201 203 181
338 332 328 325 322 322 323 328 336 337 337 338 345 350 348 351 349 345 328 268 242 232 214 220 225 237 241 234 217 206 177 214 210 214 219 232 208 192 187 194 182 180 182
352 348 347 346 343 342 341 342 346 346 348 352 352 356 358 3 355 351 340 291 246 229 189 208 212 228 225 213 203 207 178 242 208 217 226 243 192 184 186 189 194 202 201
7 7 4 3 1 4 2 360 2 1 2 5 3 2 8 15 10 356 352 347 308 196 186 209 203 188 179 186 178 184 176 225 231 207 214 216 199 188 190 200 202 208 207
33 29 26 26 24 21 19 14 15 14 13 13 13 12 14 20 23 12 7 17 277 181 196 182 187 187 190 175 171 182 174 160 194 196 205 213 201 191 198 202 203 208 209
52 47 43 39 38 34 30 26 25 24 23 18 18 20 19 19 20 24 20 18 21 220 203 194 188 198 205 201 185 186 198 193 171 178 184 202 218 204 199 203 207 211 201
60 57 51 48 44 40 36 32 31 29 26 23 21 20 23 25 27 26 10 5 2 28 205 227 218 194 196 199 198 203 222 210 207 203 185 192 181 206 195 198 205 191 192
63 61 58 54 53 50 47 45 42 38 33 29 26 22 19 21 24 26 31 22 11 349 302 202 223 225 222 224 220 223 225 207 216 221 209 209 189 207 200 203 184 193 202
Wind_Speed_850mb
27 27 28 24 24 26 24 22 22 23 24 26 29 32 35 36 36 40 39 36 35 33 34 37 39 40 40 42 44 47 51 52 62 62 58 65 66 64 58 57 53 50 45
16 16 17 17 15 15 15 15 17 20 23 28 33 38 40 40 40 42 41 41 42 43 43 43 44 43 45 45 48 52 54 56 61 68 63 65 64 59 60 57 54 44 45
10 10 10 10 11 12 16 18 21 24 29 34 39 44 47 49 50 51 51 53 55 55 53 53 52 49 49 50 50 52 54 56 59 65 68 61 63 57 57 54 51 44 40
8 5 2 11 17 22 28 32 34 33 36 40 44 49 53 56 60 61 62 64 67 66 66 63 60 59 58 56 53 52 53 57 59 65 71 67 64 59 56 55 50 44 41
6 10 13 16 21 25 31 36 41 48 49 49 52 57 61 66 70 71 72 76 78 77 76 74 72 70 69 66 60 60 61 63 66 68 71 68 66 63 57 54 53 50 49
13 15 20 26 33 40 48 55 60 67 71 69 65 66 69 75 79 82 85 83 85 86 86 84 80 79 77 76 79 76 72 66 69 73 76 72 59 64 60 56 57 62 66
21 24 28 32 37 40 43 47 52 56 60 63 66 68 74 77 81 84 87 90 88 90 88 90 91 88 84 76 70 69 64 65 66 72 79 76 70 61 59 61 58 52 43
30 33 36 39 45 47 50 52 56 59 62 64 66 69 73 75 77 80 83 83 84 87 86 85 87 90 87 82 75 72 69 64 63 71 73 71 68 63 60 59 51 58 46
40 42 44 45 50 52 55 57 58 60 62 65 66 67 68 68 66 68 71 63 66 69 71 78 84 86 82 76 73 77 72 69 66 72 74 73 72 72 61 57 57 47 36
43 45 46 48 50 55 55 58 58 58 59 57 58 58 59 62 62 70 69 73 72 73 75 72 76 77 71 76 74 74 73 70 63 63 61 69 65 65 50 51 41 42 41
46 47 49 50 52 52 52 49 48 51 54 56 59 67 74 67 57 54 52 51 55 56 60 57 56 63 78 81 85 76 71 66 75 75 65 62 58 55 64 54 48 66 49
46 48 49 47 46 44 47 50 56 56 62 66 66 66 49 49 53 48 47 49 49 51 52 58 57 48 41 55 58 64 72 78 76 73 59 49 46 49 59 64 70 70 42
46 45 45 44 43 46 48 58 57 53 58 62 60 60 61 57 56 49 45 50 55 56 46 51 49 42 51 52 62 69 70 66 62 58 51 39 41 44 76 70 46 46 51
44 43 42 51 52 48 44 45 54 55 55 56 57 60 60 58 51 45 40 40 40 26 32 37 45 46 42 44 49 55 56 53 55 50 46 35 47 45 53 56 44 46 43
43 49 49 46 46 46 46 45 45 42 41 44 48 51 55 58 51 48 43 45 42 39 29 21 25 31 35 38 41 41 41 48 50 62 55 37 44 44 35 38 38 38 31
45 44 44 44 44 42 43 44 38 41 39 40 40 39 43 47 47 47 45 38 48 36 30 29 28 28 33 34 36 30 18 32 43 73 51 37 30 34 32 35 37 33 28
40 40 41 39 38 39 39 43 50 44 43 40 43 41 40 44 42 43 43 38 34 49 41 30 25 25 28 27 43 26 10 28 66 55 50 36 24 34 41 38 35 25 24
33 33 35 35 35 35 36 40 45 50 54 51 43 40 39 41 34 33 33 30 31 39 44 28 22 23 26 25 26 25 11 9 66 68 52 25 32 32 40 41 29 24 21
29 31 32 33 30 31 32 34 37 39 40 43 44 41 42 41 30 23 22 26 25 29 35 26 24 22 23 20 16 26 21 10 58 67 66 38 40 34 33 27 24 23 23
26 27 30 30 31 30 28 30 34 36 40 42 40 42 44 40 30 24 14 14 21 26 27 26 24 21 22 19 21 18 19 9 30 67 58 35 23 26 26 21 16 16 19
27 28 29 29 28 27 25 27 30 34 39 38 36 34 34 36 28 22 14 10 15 20 28 21 22 17 19 21 25 11 13 9 19 51 64 18 23 21 21 19 17 16 13
25 28 30 27 28 25 25 25 29 33 35 37 37 33 30 32 34 23 17 11 6 20 27 19 19 23 16 20 23 15 10 16 8 25 43 21 20 18 18 18 15 13 14
26 32 36 36 32 28 28 28 30 32 33 36 37 37 31 29 30 29 18 15 2 13 25 26 18 19 17 21 23 20 16 16 8 11 19 18 16 19 20 18 18 18 16
39 40 42 45 46 44 41 38 33 33 34 35 36 36 35 29 22 22 20 17 14 7 24 32 24 25 18 23 14 15 14 17 14 1 9 11 16 21 21 20 21 19 15
48 50 54 57 58 58 52 48 46 42 40 38 36 35 35 31 27 20 15 13 11 6 6 19 39 36 18 21 25 23 29 26 23 14 17 22 14 19 21 20 20 19 16
57 60 65 64 69 73 73 71 67 62 56 50 44 39 36 33 27 23 19 16 13 9 2 10 14 26 29 25 29 30 34 31 24 22 20 21 15 17 23 23 23 19 15
Wind_Direction_850mb
128 141 155 160 167 179 188 195 204 216 233 240 248 244 245 247 251 258 262 259 253 256 259 260 262 266 269 270 272 273 275 277 279 287 285 287 285 284 282 274 275 278 281
126 138 147 155 169 181 189 207 222 237 245 246 245 246 248 249 252 253 254 257 258 255 255 258 261 265 264 268 273 274 274 274 278 283 283 284 286 284 279 280 278 272 271
112 123 134 161 177 204 225 236 243 247 249 250 251 251 254 256 259 259 260 260 259 258 258 259 262 264 264 267 266 269 272 275 276 279 283 283 284 285 285 280 274 271 260
72 79 195 240 250 254 256 258 261 262 261 260 259 259 259 260 261 262 263 263 261 260 260 261 263 263 264 263 265 267 273 277 278 278 278 279 280 286 282 279 272 263 256
356 348 304 296 286 281 277 276 275 273 271 270 269 266 265 264 265 265 263 262 262 263 262 263 264 263 261 257 260 264 268 275 276 275 274 274 276 278 277 278 270 263 262
328 319 310 300 292 287 283 279 276 274 272 272 270 269 267 265 266 263 262 262 262 263 264 263 261 261 259 259 260 262 265 272 274 270 270 272 273 278 276 274 270 273 266
314 305 300 297 293 290 287 284 283 281 280 276 273 271 269 268 268 266 265 264 265 263 262 260 258 257 257 254 258 264 268 277 280 274 265 266 271 274 278 274 266 269 255
305 300 297 293 290 289 287 284 283 281 279 277 276 274 275 273 272 270 268 267 267 266 264 263 262 260 251 250 254 257 263 271 274 272 267 266 269 267 273 270 260 269 246
301 297 294 292 292 292 289 287 284 281 280 279 278 279 278 279 277 275 272 273 269 268 267 263 260 259 251 247 249 250 261 269 276 272 270 268 267 270 261 253 258 250 216
296 292 293 293 290 289 287 286 286 284 285 285 284 282 282 280 274 269 270 270 272 274 272 264 254 254 257 249 248 249 260 266 275 277 272 268 264 260 240 231 232 194 175
294 295 294 293 292 290 290 289 288 287 285 282 279 280 282 285 290 286 282 270 270 271 272 275 272 259 250 247 249 249 256 263 273 275 274 268 260 245 240 236 214 173 216
295 293 293 293 292 289 288 287 289 290 291 292 293 294 288 277 277 274 277 273 267 267 269 266 263 259 243 229 231 243 257 265 263 263 262 249 231 236 226 177 166 165 178
295 294 293 293 292 288 289 294 295 295 297 301 300 297 297 296 290 280 272 266 266 270 265 266 264 257 258 257 256 258 262 253 251 254 241 226 213 180 173 176 186 198 181
291 293 290 290 297 297 297 297 301 304 304 302 300 296 297 296 291 289 284 276 264 269 269 265 258 259 251 247 250 253 246 242 244 237 209 192 173 163 169 183 187 190 185
290 293 300 302 302 302 305 305 307 310 310 306 302 299 295 296 291 279 277 261 264 250 268 259 262 251 253 252 248 245 243 242 223 193 196 190 185 202 202 198 196 187 185
299 301 304 306 308 310 314 317 322 324 323 322 318 311 305 296 296 289 282 276 245 245 257 252 259 258 254 250 246 239 240 226 222 193 205 215 209 209 205 209 202 192 189
300 308 312 312 315 318 323 323 325 327 328 332 333 328 322 313 300 288 283 272 254 243 249 229 252 255 252 247 216 236 233 207 189 197 206 221 220 207 200 200 200 194 193
311 314 315 320 322 322 321 324 326 326 330 332 338 335 334 330 307 294 279 262 249 237 230 226 244 251 248 248 228 220 202 229 193 195 202 222 204 201 199 202 199 200 193
324 325 323 320 316 312 315 321 324 326 328 331 338 344 344 338 334 316 286 252 244 232 220 225 233 251 244 251 227 209 194 209 200 206 215 209 237 198 195 202 201 203 181
338 332 328 325 322 322 323 328 336 337 337 338 345 350 348 351 349 345 328 268 242 232 214 220 225 237 241 234 217 206 177 214 210 214 219 232 208 192 187 194 182 180 182
352 348 347 346 343 342 341 342 346 346 348 352 352 356 358 3 355 351 340 291 246 229 189 208 212 228 225 213 203 207 178 242 208 217 226 243 192 184 186 189 194 202 201
7 7 4 3 1 4 2 360 2 1 2 5 3 2 8 15 10 356 352 347 308 196 186 209 203 188 179 186 178 184 176 225 231 207 214 216 199 188 190 200 202 208 207
33 29 26 26 24 21 19 14 15 14 13 13 13 12 14 20 23 12 7 17 277 181 196 182 187 187 190 175 171 182 174 160 194 196 205 213 201 191 198 202 203 208 209
52 47 43 39 38 34 30 26 25 24 23 18 18 20 19 19 20 24 20 18 21 220 203 194 188 198 205 201 185 186 198 193 171 178 184 202 218 204 199 203 207 211 201
60 57 51 48 44 40 36 32 31 29 26 23 21 20 23 25 27 26 10 5 2 28 205 227 218 194 196 199 198 203 222 210 207 203 185 192 181 206 195 198 205 191 192
63 61 58 54 53 50 47 45 42 38 33 29 26 22 19 21 24 26 31 22 11 349 302 202 223 225 222 224 220 223 225 207 216 221 209 209 189 207 200 203 184 193 202